TimeMST,TemperatureF,Dew PointF,Humidity,Sea Level PressureIn,VisibilityMPH,Wind Direction,Wind SpeedMPH,Gust SpeedMPH,PrecipitationIn,Events,Conditions,WindDirDegrees,DateUTC
12:34 AM,17.6,10.4,73,30.35,1.8,Calm,Calm,-,N/A,,Haze,0,2013-01-20 07:34:00
12:45 AM,19.4,10.4,68,30.35,3.0,South,4.6,-,N/A,,Haze,170,2013-01-20 07:45:00
12:54 AM,19.9,10.9,68,30.36,9.0,SSE,5.8,-,N/A,,Clear,150,2013-01-20 07:54:00
1:54 AM,16.0,9.0,74,30.37,9.0,South,3.5,-,N/A,,Clear,180,2013-01-20 08:54:00
2:54 AM,16.0,9.0,74,30.36,10.0,South,3.5,-,N/A,,Clear,180,2013-01-20 09:54:00
3:54 AM,16.0,9.0,74,30.35,10.0,Calm,Calm,-,N/A,,Clear,0,2013-01-20 10:54:00
4:54 AM,15.8,8.6,73,30.33,8.0,Calm,Calm,-,N/A,,Clear,0,2013-01-20 11:54:00
5:54 AM,16.0,8.1,71,30.40,10.0,South,4.6,-,N/A,,Clear,180,2013-01-20 12:54:00
6:54 AM,16.0,8.1,71,30.42,10.0,South,5.8,-,N/A,,Clear,170,2013-01-20 13:54:00
7:54 AM,15.1,7.0,70,30.42,10.0,Calm,Calm,-,N/A,,Clear,0,2013-01-20 14:54:00
8:54 AM,21.9,10.9,63,30.41,10.0,Calm,Calm,-,N/A,,Clear,0,2013-01-20 15:54:00
9:54 AM,28.9,14.0,54,30.38,10.0,Calm,Calm,-,N/A,,Clear,0,2013-01-20 16:54:00
10:54 AM,35.6,15.8,44,30.32,10.0,Calm,Calm,-,N/A,,Clear,0,2013-01-20 17:54:00
11:54 AM,39.0,16.0,39,30.32,10.0,NW,4.6,-,N/A,,Clear,320,2013-01-20 18:54:00
12:54 PM,44.1,18.0,35,30.25,10.0,Variable,3.5,-,N/A,,Clear,0,2013-01-20 19:54:00
1:54 PM,46.9,17.1,30,30.23,10.0,Variable,4.6,-,N/A,,Clear,0,2013-01-20 20:54:00
2:54 PM,48.9,12.9,24,30.22,10.0,NW,5.8,-,N/A,,Clear,320,2013-01-20 21:54:00
3:54 PM,50.0,14.0,24,30.21,10.0,NW,9.2,-,N/A,,Clear,320,2013-01-20 22:54:00
4:54 PM,48.0,12.9,24,30.23,10.0,WNW,5.8,-,N/A,,Clear,300,2013-01-20 23:54:00
5:54 PM,37.0,12.9,37,30.28,10.0,WSW,3.5,-,N/A,,Clear,250,2013-01-21 00:54:00
6:54 PM,30.0,10.9,45,30.32,9.0,WSW,4.6,-,N/A,,Clear,240,2013-01-21 01:54:00
7:54 PM,28.9,12.0,49,30.33,10.0,Calm,Calm,-,N/A,,Clear,0,2013-01-21 02:54:00
8:54 PM,28.0,12.0,51,30.32,10.0,SSE,4.6,-,N/A,,Clear,160,2013-01-21 03:54:00
9:54 PM,24.1,12.0,60,30.31,10.0,South,5.8,-,N/A,,Clear,180,2013-01-21 04:54:00
10:54 PM,21.9,12.0,66,30.30,10.0,South,3.5,-,N/A,,Clear,180,2013-01-21 05:54:00
11:54 PM,24.1,12.9,62,30.28,10.0,South,8.1,-,N/A,,Clear,180,2013-01-21 06:54:00